Погода в Калинине

Россия / Орловская область     52°46′46″N   36°13′16″E
темп.,
°C
ветер,
м/с
пор.,
м/с
влажн.,
%
обл.,
%
осадки,
мм/ч
давл.,
гПа
погр.,
м
28 ноября, вс
вс2800:00+4ю51298100 0.0 1003363
03:00+5ююз51298100 0.0 1003374
06:00+5юз389750 0.0 1004383
09:00+3юз37967 0.0 1006182
12:00+4зюз357864 0.0 1007278
15:00+5ююз237744 0.0 1008119
18:00+3ююв3488100 0.0 100955
21:00+3ююв41096100 0.0 1008228
29 ноября, пн
пн2900:00+3юв51195100 0.0 1008281
03:00+4юв51195100 0.0 1006239
06:00+4вюв51097100 0.0 1003233
09:00+5в41198100 1.2 1000333
12:00+5юв4999100 0.3 997285
15:00+7ю51198100 0.3 996408
18:00+7ююв51295100 0.0 993387
21:00+7вюв51196100 0.3 988359
30 ноября, вт
вт3000:00+8вюв4998100 8.6 981247
03:00+8ююз91595100 12.8 975629
06:00+6юз121693100 4.3 9781180
09:00+1зюз142297100 9.3 9841107
12:00+1зюз132085100 1.8 9871113
15:00+1зюз111782100 1.8 9891096
18:00+1юз91685100 0.1 9901315
21:00−1юз8148311 0.1 991928
1 декабря, ср
ср100:00−1зюз9128194 0.0 9901039
03:00−2зюз81286100 0.2 992980
06:00−2з81392100 0.3 9921043
09:00−3з81293100 1.1 994984
12:00−3з81294100 1.6 996943
15:00−3з81288100 2.2 997888
18:00−4з71285100 0.1 1000765
21:00−5з6118996 0.1 1001646
2 декабря, чт
чт200:00−6з5109177 0.0 1003496
03:00−6зюз4893100 0.0 1004327
06:00−6юз3894100 0.0 1005266
09:00−4ю51288100 0.0 1004474
12:00−1ююз81696100 0.8 1003696
15:000юз81597100 1.7 1002652
18:00+1юз7149184 0.2 1003530
21:00+1юз61590100 0.2 1004430